Location: Boullarre
(49.1305°N, 3.0047°E)
Time: 06:48:41
(UTC+00:00)

Cosmos 1844 Rocket - Pass Details

Date: 03 February 2023
Orbit: 825 x 843 km, 71.0° (Epoch: 24 March)

Event Time Altitude Azimuth Distance (km) Brightness Sun altitude
Rises 17:39:52 0° 333° (NNW) 3,377 6.0 -8.9°
Reaches altitude 10° 17:42:21 10° 337° (NNW) 2,439 5.2 -9.3°
Maximum altitude 17:47:51 57° 56° (ENE) 969 2.7 -10.1°
Drops below altitude 10° 17:53:20 10° 136° (SE) 2,424 4.8 -11.0°
Sets 17:55:48 0° 140° (SE) 3,355 5.5 -11.4°
